Location: Caltech
(34.1382°N, 118.1253°W)
Time: 08:09:47
(UTC-07:00)

Cosmos 2237 Rocket - Visible Passes

Search period start: 30 July 2014 00:00
Search period end: 09 August 2014 00:00
Orbit: 833 x 852 km, 71.0° (Epoch: 29 July)

Date Brightness Start Highest point End Pass type
(mag) Time Alt. Az. Time Alt. Az. Time Alt. Az.
30 Jul 3.9 21:34:47 10° NNE 21:38:28 17° ENE 21:39:55 16° ENE visible
30 Jul 2.9 23:17:20 10° NNW 23:21:45 49° WNW 23:21:45 49° WNW visible
31 Jul 4.0 21:20:10 10° NNE 21:23:42 17° NE 21:25:34 14° ENE visible
31 Jul 2.7 23:02:35 10° NNW 23:07:24 56° WNW 23:07:24 56° WNW visible
01 Aug 4.0 21:05:34 10° NNE 21:08:55 16° NE 21:11:15 13° E visible
01 Aug 2.4 22:47:50 10° NNW 22:53:05 64° W 22:53:05 64° W visible
02 Aug 4.1 20:50:59 10° NNE 20:54:09 15° NE 20:56:59 11° E visible
02 Aug 2.2 22:33:05 10° NNW 22:38:45 70° WSW 22:38:49 70° WSW visible
03 Aug 4.1 20:36:24 10° NNE 20:39:22 14° NE 20:42:19 10° E visible
03 Aug 2.2 22:18:20 10° NNW 22:24:01 74° WSW 22:24:35 68° SSW visible
04 Aug 4.1 20:21:51 10° NNE 20:24:35 14° NE 20:27:19 10° E visible
04 Aug 2.2 22:03:35 10° NNW 22:09:17 78° WSW 22:10:25 58° S visible
05 Aug 2.2 21:48:50 10° NNW 21:54:33 82° WSW 21:56:17 47° S visible
06 Aug 2.2 21:34:06 10° NNW 21:39:49 86° WSW 21:42:13 37° SSE visible
07 Aug 2.2 21:19:22 10° NNW 21:25:05 90° ENE 21:28:12 28° SSE visible
08 Aug 2.2 21:04:38 10° NNW 21:10:21 86° ENE 21:14:16 21° SSE visible
